Regional Weather Roundup
Issued by NWS Charleston, SC

Current Version | Previous Version | Graphics & Text | Print | Product List | Glossary On
Versions: 1 2 3 4 5 6 7 8 9 10 11 12 13 14 15 16 17 18 19 20 21 22 23 24 25 26 27 28 29 30 31 32 33 34 35 36 37 38 39 40 41 42 43 44 45 46 47 48 49 50
264 ASUS42 KCHS 240212 RWRCHS REGIONAL WEATHER ROUNDUP NATIONAL WEATHER SERVICE CHARLESTON SC 1000 PM EDT SUN APR 23 2017 NOTE: "FAIR" INDICATES FEW OR NO CLOUDS BELOW 12,000 FEET WITH NO SIGNIFICANT WEATHER AND/OR OBSTRUCTIONS TO VISIBILITY. NOT ALL STATIONS ARE QUALITY CONTROLLED. USE DATA WITH CAUTION... ESPECIALLY DEWPOINT OBSERVATIONS. SCZ027-030-031-034>040-042>050-240300- ...SOUTHEAST SOUTH CAROLINA... CITY SKY/WX TMP DP RH WIND PRES REMARKS N CHARLESTON PTCLDY 73 67 81 SE14G22 29.79F WATERFRONT PRK N/A 74 71 90 SE15 29.77F JOHNS ISLAND FAIR 73 70 88 SE13 29.80S PINOPOLIS N/A 73 70 88 VRB3 29.72S MONCKS CORNER FAIR 72 66 83 SE6 29.80S SUMMERVILLE MOCLDY 73 68 83 E7 29.79S BEAUFORT MCAS PTCLDY 76 73 91 SE13 29.76S BEAUFORT ARPT FAIR 73 70 88 S9G17 29.77S HILTON HEAD IS CLEAR 75 72 88 SE8 29.78S WALTERBORO PTCLDY 72 68 88 SE6 29.78S ALLENDALE CLOUDY 73 64 73 SE12 29.73R ...SOUTHERN MIDLANDS AND PEE DEE... CITY SKY/WX TMP DP RH WIND PRES REMARKS GEORGETOWN MOCLDY 72 68 88 SE9 29.85R KINGSTREE LGT RAIN 68 63 83 E7 29.83S ORANGEBURG CLOUDY 67 66 97 E6 29.77S BARNWELL CLOUDY 70 70 100 NE7 29.74R AIKEN LGT RAIN 61 59 94 NE8 29.82R MANNING CLOUDY 70 66 88 E8G33 29.80S COLUMBIA RAIN 63 60 90 E7 29.80R SUMTER CLOUDY 62 61 96 E10 29.79S FLORENCE CLOUDY 60 60 100 E16 29.86F MYRTLE BEACH CLOUDY 68 66 94 E12 29.86S N MYRTLE BEACH CLOUDY 66 64 93 NE8 29.88R $$ GAZ063-065-086>088-099>101-113>116-118-119-134>141-150-240300- ...SOUTHEAST GEORGIA... CITY SKY/WX TMP DP RH WIND PRES REMARKS SAVANNAH ARPT PTCLDY 76 66 71 S21 29.75S HUNTER AAF PTCLDY 75 73 95 S14G21 29.73F FORT STEWART CLOUDY 74 67 80 SE9 29.73R STATESBORO CLOUDY 72 67 85 W5 29.76R SYLVANIA MOCLDY 75 66 73 S7 29.75R CLAXTON RAIN N/A N/A N/A S7 29.77R ...CSRA...CENTRAL AND FAR SOUTHEAST GEORGIA... CITY SKY/WX TMP DP RH WIND PRES REMARKS THOMSON CLOUDY 60 59 96 E9 29.84R AUGUSTA-BUSH CLOUDY 66 63 90 N9 29.76R AUGUSTA-DANIEL CLOUDY 64 60 87 N9 29.78R SWAINSBORO MOCLDY 66 66 100 E5 29.76R VIDALIA CLOUDY 68 64 88 CALM 29.77R EASTMAN CLOUDY 67 67 100 NW8 29.79S HAZLEHURST MOCLDY 70 68 93 CALM 29.76R ALMA CLOUDY 78 64 61 S7 29.74R WAYCROSS CLOUDY 77 72 83 S6 29.75S JESUP CLOUDY 75 64 69 S7 29.76R BAXLEY DRIZZLE 73 73 100 S3 29.74R BRUNSWICK CLOUDY 75 72 88 S12G17 29.78S SAINT SIMONS CLOUDY 74 69 85 S13G20 29.77S $$ SCZ027-028-034-036>038-045-046-048>050-GAZ119-141-240300- ...LAKE AND SUPPLEMENTAL COASTAL OBSERVATIONS... STATION/POSITION TIME TEMP WIND PRES WAVE SWELL AIR SEA DIR/SP/G HT/PER HT/PER/DIR (UTC) (F) (DEG/KT/KT) (MB) (FT/S) (FT/S/D) WINYAH BAY 0045 72 130/ 12 1010.0 LAKE MURRAY 0120 60 50/ 6/ 10 1008.1 ACE BASIN NERRS NOT AVBL FORT PULASKI 0136 74 75 170/ 9/ 14 1008.1F SAPELO ISLAND 0100 75 150/ 11 1008.0 $$ ANZ835-935-AMZ111-154-330-350-352-354-370-450-454-472-240300- ...C-MAN AND BUOY OBSERVATIONS... STATION/POSITION TIME TEMP WIND PRES WAVE SWELL AIR SEA DIR/SP/G HT/PER HT/PER/DIR (UTC) (F) (DEG/KT/KT) (MB) (FT/S) (FT/S/D) BUOY 41004 0150 75 75 140/ 16/ 19 1009.4R 4/ 5 2/120/11 BUOY 41008 0150 74 72 150/ 16/ 17 1007.7F 3/12 2/ 90/12 FOLLY BEACH CMAN 0100 74 140/ 14/ 17 1009.7R CAPERS NEARSHORE 0108 74 74 150/ 12/ 17 1009.1R FRIPP NEARSHORE 0108 74 72 150/ 12/ 17 1007.9F STATION/POSITION TIME TEMP WIND PRES WAVE SWELL AIR SEA DIR/SP/G HT/PER HT/PER/DIR (UTC) (F) (DEG/KT/KT) (MB) (FT/S) (FT/S/D) 5E ST. MARYS GA 0130 72 N/A 3/13 2/110/13 FRYING PAN BUOY 0150 75 74 160/ 10/ 14 1011.3R 5/ 5 3/ 90/ 5 BUOY 41025 0150 71 76 60/ 14/ 17 1013.2R 6/10 5/ 60/10 CAPE LOOKOUT NC 0100 64 30/ 20/ 23 1013.6R BUOY 41002 0150 73 75 150/ 17/ 21 1013.9R 5/ 5 2/ 20/11 BUOY 41010 0140 75 79 130/ 23/ 31 1008.9R ST AUGUSTINE FL 0200 74 77 160/ 20/ 22 1009.7R $$

USA.gov is the U.S. government's official web portal to all federal, state and local government web resources and services.